Home   Weather   Asheville   Past weeks

Flag for USA Past Weather in Asheville, North Carolina, USA — Yesterday and Last 2 Weeks

Now
23 °F

Clear.


Feels Like: 13 °F
Forecast: 16 / 42 °F
Wind: 9 mph from North

Location: Asheville Regional Airport

Current Time: Dec 10, 2016 at 2:09:11 am

Latest Report: Dec 10, 2016 at 12:54 am


Visibility: 10 mi

Pressure: 30.48 "Hg (28.07 "Hg at 647m altitude)

Humidity: 63%

Dew Point: 12 °F

Location of AshevilleLocation

Past Weather in Asheville — Graph

°F

Asheville Temperature Yesterday

Maximum temperature yesterday: 33 °F (at 1:54 pm)
Minimum temperature yesterday: 22 °F (at 5:54 am)
Average temperature yesterday: 26 °F

High & Low Weather Summary for the Past Weeks

 TemperatureHumidityPressure
High68 °F (Nov 25, 2:54 pm)97% (Nov 25, 7:03 am)30.49 "Hg (Nov 25, 7:03 am)
Low22 °F (Nov 27, 4:54 am)21% (Dec 2, 2:54 pm)29.65 "Hg (Nov 30, 5:54 pm)
Average45 °F68%30.07 "Hg
* Reported Nov 25 12:54 am — Dec 10 12:54 am, Asheville, Weather by CustomWeather, © 2016

Note: Actual official high and low records may vary slightly from our data, if they occured in-between our weather recording intervals... More about our weather records

Advertising

Asheville Weather History for the Previous 24 Hours

Scroll right to see more
 ConditionsComfort  
Time TempWeatherWind HumidityBarometerVisibility
12:54 am
Sat, Dec 10
23 °FClear.9 mph63%30.48 "Hg10 mi
11:54 pm
Fri, Dec 9
23 °FClear.8 mph63%30.49 "Hg10 mi
10:54 pm22 °FClear.7 mph68%30.49 "Hg10 mi
9:54 pm23 °FClear.6 mph65%30.48 "Hg10 mi
8:54 pm24 °FClear.8 mph60%30.49 "Hg10 mi
7:54 pm26 °FClear.13 mph55%30.46 "Hg10 mi
6:54 pm27 °FClear.13 mph53%30.45 "Hg10 mi
5:54 pm28 °FClear.8 mph49%30.45 "Hg10 mi
4:54 pm30 °FSunny.10 mph43%30.42 "Hg10 mi
3:54 pm32 °FSunny.15 mph41%30.42 "Hg10 mi
2:54 pm33 °FSunny.15 mph41%30.40 "Hg10 mi
1:54 pm33 °FSunny.13 mph43%30.40 "Hg10 mi
12:54 pm30 °FSunny.14 mph47%30.41 "Hg10 mi
11:54 am30 °FSunny.15 mph49%30.44 "Hg10 mi
10:54 am27 °FSunny.15 mph53%30.46 "Hg10 mi
9:54 am26 °FSunny.20 mph55%30.45 "Hg10 mi
8:54 am24 °FSunny.16 mph60%30.42 "Hg10 mi
7:54 am22 °FSunny.18 mph66%30.39 "Hg10 mi
6:54 am22 °FClear.15 mph66%30.38 "Hg10 mi
5:54 am22 °FClear.14 mph66%30.35 "Hg10 mi
4:54 am23 °FClear.14 mph60%30.34 "Hg10 mi
3:54 am24 °FClear.14 mph57%30.33 "Hg10 mi
2:54 am26 °FClear.17 mph50%30.31 "Hg10 mi
Weather by CustomWeather, © 2016

See weather overviewHow to use our weather pages